Regional Weather Roundup
Issued by NWS Sterling, VA

Home | Current Version | Previous Version | Graphics & Text | Print | Product List | Glossary On
Versions: 1 2 3 4 5 6 7 8 9 10 11 12 13 14 15 16 17 18 19 20 21 22 23 24 25 26 27 28 29 30 31 32 33 34 35 36 37 38 39 40 41 42 43 44 45 46 47 48 49 50
000
ASUS41 KLWX 280310
RWRLWX

REGIONAL WEATHER ROUNDUP
NATIONAL WEATHER SERVICE BALTIMORE MD/WASHINGTON DC
1100 PM EDT SUN JUL 27 2014

Note: "FAIR" indicates few or no clouds below 12,000 feet
with no significant weather and/or obstructions to visibility.
 TC=TEMPERATURE CELSIUS

 * =Non NWS site. Station does not report precipitation (e.g. rain,
    snow, etc.), thunder, or fog.

DCZ001-MDZ009-015-VAZ040>042-051-053>054-280400-
WASHINGTON METRO
  /KDAA//-FT BELVOIR

CITY           SKY/WX    TMP DP  RH WIND       PRES   REMARKS
WASHINGTON NAT MOCLDY    80  72  76 S8        29.66S
DULLES         CLOUDY    77  69  76 SW8       29.67R
ANDREWS AFB    PTCLDY    77  73  86 S8        29.66F
QUANTICO       PTCLDY    80  71  74 W14G23    29.67F
COLLEGE PARK*  PTCLDY    81  72  74 S6        29.66S
LEESBURG*      LGT RAIN  79  73  83 W8        29.68R
MANASSAS*      MOCLDY    79  72  78 SW8       29.66F
GAITHERSBURG*  CLOUDY    77  70  78 SW5       29.70F

$$

MDZ006>007-011-014-280400-
BALTIMORE METRO

CITY           SKY/WX    TMP DP  RH WIND       PRES   REMARKS
BWI AIRPORT    MOCLDY    78  71  79 S5        29.65F
MD SCIENCE CTR   N/A     80  71  74 MISG      29.66S
MARTIN STATE   CLOUDY    79  73  83 S6        29.67F
ANNAPOLIS      MOCLDY    79  72  79 SW3       29.66F
FORT MEADE*    MOCLDY    73  70  88 CALM      29.69R

$$

MDZ012-015-019>023-280400-
MARYLAND EASTERN SHORE

CITY           SKY/WX    TMP DP  RH WIND       PRES   REMARKS
OCEAN CITY     CLEAR     76  73  91 SW9       29.71F
SALISBURY      NOT AVBL
BAY BRIDGE AP*   N/A     79  72  78 S9G16     29.66F
CAMBRIDGE*     PTCLDY    79  72  78 S6        29.69S
EASTON*        PTCLDY    79  74  85 SW7       29.71

$$

MDZ017>025-280400-
SOUTHERN MARYLAND

CITY           SKY/WX    TMP DP  RH WIND       PRES   REMARKS
PATUXENT RIVER CLEAR     77  71  82 SW10      29.67F
ST INIGOES     CLEAR     78  71  79 S9        29.68F
LEONARDTOWN*   CLEAR     77  70  78 S9        29.69F

$$

MDZ003>005-280400-
NORTH CENTRAL MARYLAND

CITY           SKY/WX    TMP DP  RH WIND       PRES   REMARKS
FREDERICK*     CLOUDY    72  68  88 N10       29.71R THUNDER
HAGERSTOWN APT TSTM      67  65  93 NW12      29.70R FOG
WESTMINSTER*   TSTM      66  66 100 E6        29.70S

$$

MDZ501>502-280400-
WESTERN MARYLAND

CITY           SKY/WX    TMP DP  RH WIND       PRES   REMARKS
OAKLAND*       CLOUDY    63 N/A N/A SW10G16   29.76F
CUMBERLAND*    CLOUDY    72  68  88 S5        29.71F

$$

VAZ025>031-280400-
SHENANDOAH VALLEY

CITY           SKY/WX    TMP DP  RH WIND       PRES   REMARKS
WINCHESTER*    RAIN      73  70  88 SW14G20   29.70S
STAUNTON*      CLEAR     76  66  73 S7        29.75S

$$

WVZ021-048>050-054>055-280400-
EASTERN WEST VIRGINIA PANHANDLE

CITY           SKY/WX    TMP DP  RH WIND       PRES   REMARKS
MARTINSBURG    LGT RAIN  73  68  84 E8        29.62F
PETERSBURG*    CLOUDY    67  61  81 S6        29.73F

$$

VAZ036>039-050-280400-
CENTRAL FOOTHILLS

CITY           SKY/WX    TMP DP  RH WIND       PRES   REMARKS
CHARLOTTESVILL PTCLDY    76  72  87 S10       29.71F
ORANGE*        PTCLDY    77  72  83 S7        29.71F

$$

VAZ055>057-280400-
NORTH AND CENTRAL PIEDMONT

CITY           SKY/WX    TMP DP  RH WIND       PRES   REMARKS
FREDERICKSBRG* MOCLDY    80  72  76 SW9       29.68F
STAFFORD*      PTCLDY    79  78  95 SW6       29.72F

$$

NCZ024-NYZ072-PAZ021-071-VAZ022-071-280400-
OTHER REGIONAL OBSERVATIONS

CITY           SKY/WX    TMP DP  RH WIND       PRES   REMARKS
NEW YORK CITY  CLOUDY    80  70  71 CALM      29.71S
PHILADELPHIA   CLOUDY    79  70  74 S7        29.66F
PITTSBURGH     CLOUDY    69  66  90 SW9       29.66S
ROANOKE        PTCLDY    78  65  63 SW10      29.78F
RICHMOND       PTCLDY    79  72  79 S8        29.72F
RALEIGH        CLOUDY    82  70  66 SW13      29.76F

$$

ANZ530>537-280400-
MARINE OBSERVATIONS

STATION/POSITION TIME  TEMP    WIND        PRES
                       AIR SEA DIR/SP/G
                 (UTC) (F)     (DEG/KT/KT) (MB)
THOMAS PT LIGHT  0300   79 80  190/ 18/ 19 1004.5F
BALT KEY BRIDGE  0300   82     170/  9/ 12 1003.8R
COVE POINT       0300   78     220/ 16/ 18 1005.0F
LEWISETTA        0300   78 80  220/ 14/ 17 1005.0F
SOLOMONS ISLAND  0300      80                N/A
PINEY POINT      0300          220/ 15/ 16   N/A

$$



USA.gov is the U.S. government's official web portal to all federal, state and local government web resources and services.